When you browse on this site, cookies collect data to enhance your experience and personalize the content and advertising you see.
Visit our Privacy Policy to learn more. By continuing to use the site, you agree to this use of cookies and data.
  • In Hungary
  • List of Countries
  • For 7 days
  • Water Temperature
  • Satellite Maps
  • Weather Map
  • News
  • Weather Widgets
  • user-avatar
    Login

    Hourly Weather Clichy-sous-Bois

    Today, 23 March, Saturday

    Time Temperature Precipitation Wind Pressure Humidity
    00:00 +11°C° 0 mm 1 mps 766 mmHg 62%
    01:00 +10°C° 0 mm 1 mps 766 mmHg 66%
    02:00 +10°C° 0 mm 1 mps 766 mmHg 70%
    03:00 +9°C° 0 mm 1 mps 766 mmHg 74%
    04:00 +9°C° 0 mm 1 mps 766 mmHg 77%
    05:00 +8°C° 0 mm 1 mps 767 mmHg 81%
    06:00 +8°C° 0 mm 1 mps 767 mmHg 84%
    07:00 +8°C° 0 mm 2 mps 767 mmHg 80%
    08:00 +9°C° 0 mm 2 mps 767 mmHg 76%
    09:00 +10°C° 0 mm 2 mps 767 mmHg 72%
    10:00 +12°C° 0 mm 2 mps 767 mmHg 67%
    11:00 +14°C° 0 mm 2 mps 767 mmHg 62%
    12:00 +15°C° 0 mm 2 mps 767 mmHg 57%
    13:00 +14°C° 0 mm 3 mps 767 mmHg 58%
    14:00 +14°C° 0 mm 3 mps 767 mmHg 59%
    15:00 +14°C° 0 mm 3 mps 766 mmHg 59%
    16:00 +13°C° 0 mm 3 mps 766 mmHg 64%
    17:00 +12°C° 0 mm 3 mps 766 mmHg 68%
    18:00 +11°C° 0 mm 3 mps 766 mmHg 72%
    19:00 +10°C° 0 mm 3 mps 767 mmHg 74%
    20:00 +10°C° 0 mm 2 mps 767 mmHg 76%
    21:00 +9°C° 0 mm 2 mps 767 mmHg 78%
    22:00 +9°C° 0 mm 2 mps 767 mmHg 81%
    23:00 +8°C° 0 mm 2 mps 767 mmHg 83%

    Tomorrow, 24 March, Sunday

    Time Temperature Precipitation Wind Pressure Humidity
    00:00 +8°C° 0 mm 2 mps 767 mmHg 86%
    01:00 +8°C° 0 mm 2 mps 766 mmHg 88%
    02:00 +7°C° 0 mm 2 mps 766 mmHg 90%
    03:00 +7°C° 0 mm 2 mps 766 mmHg 92%
    04:00 +6°C° 0 mm 2 mps 766 mmHg 92%
    05:00 +6°C° 0 mm 2 mps 766 mmHg 93%
    06:00 +6°C° 0 mm 2 mps 766 mmHg 94%
    07:00 +7°C° 0 mm 2 mps 766 mmHg 89%
    08:00 +8°C° 0 mm 2 mps 766 mmHg 84%
    09:00 +9°C° 0 mm 2 mps 766 mmHg 80%
    10:00 +12°C° 0 mm 2 mps 766 mmHg 74%
    11:00 +12°C° 0 mm 3 mps 766 mmHg 68%
    12:00 +13°C° 0 mm 3 mps 766 mmHg 62%
    13:00 +14°C° 0 mm 4 mps 766 mmHg 61%
    14:00 +14°C° 0 mm 4 mps 766 mmHg 59%
    15:00 +14°C° 0 mm 4 mps 765 mmHg 58%
    16:00 +13°C° 0 mm 4 mps 765 mmHg 60%
    17:00 +12°C° 0 mm 4 mps 766 mmHg 62%
    18:00 +11°C° 0 mm 3 mps 766 mmHg 64%
    19:00 +10°C° 0 mm 3 mps 766 mmHg 63%
    20:00 +9°C° 0 mm 3 mps 766 mmHg 62%
    21:00 +8°C° 0 mm 3 mps 767 mmHg 62%
    22:00 +8°C° 0 mm 3 mps 767 mmHg 62%
    23:00 +7°C° 0 mm 3 mps 767 mmHg 63%

    Day after tomorrow, 25 March, Monday

    Time Temperature Precipitation Wind Pressure Humidity
    00:00 +6°C° 0 mm 2 mps 767 mmHg 64%
    01:00 +6°C° 0 mm 2 mps 767 mmHg 67%
    02:00 +6°C° 0 mm 2 mps 766 mmHg 70%
    03:00 +6°C° 0 mm 2 mps 766 mmHg 74%
    04:00 +6°C° 0 mm 2 mps 766 mmHg 75%
    05:00 +4°C° 0 mm 3 mps 766 mmHg 76%
    06:00 +4°C° 0 mm 3 mps 766 mmHg 77%
    07:00 +5°C° 0 mm 4 mps 767 mmHg 72%
    08:00 +6°C° 0 mm 5 mps 767 mmHg 67%
    09:00 +7°C° 0 mm 6 mps 768 mmHg 62%
    10:00 +8°C° 0 mm 5 mps 768 mmHg 57%
    11:00 +8°C° 0 mm 5 mps 768 mmHg 53%
    12:00 +9°C° 0 mm 5 mps 768 mmHg 49%
    13:00 +9°C° 0 mm 6 mps 768 mmHg 48%
    14:00 +9°C° 0 mm 6 mps 768 mmHg 48%
    15:00 +9°C° 0 mm 6 mps 768 mmHg 48%
    16:00 +9°C° 0 mm 5 mps 768 mmHg 51%
    17:00 +8°C° 0 mm 5 mps 768 mmHg 55%
    18:00 +8°C° 0 mm 4 mps 769 mmHg 58%
    19:00 +7°C° 0 mm 4 mps 769 mmHg 63%
    20:00 +6°C° 0 mm 4 mps 770 mmHg 68%
    21:00 +5°C° 0 mm 4 mps 770 mmHg 72%
    22:00 +5°C° 0 mm 4 mps 771 mmHg 75%
    23:00 +4°C° 0 mm 4 mps 771 mmHg 78%

    26 March, Tuesday

    Time Temperature Precipitation Wind Pressure Humidity
    00:00 +4°C° 0 mm 4 mps 771 mmHg 81%
    01:00 +4°C° 0 mm 4 mps 771 mmHg 82%
    02:00 +3°C° 0 mm 4 mps 771 mmHg 84%
    03:00 +3°C° 0 mm 3 mps 771 mmHg 85%
    04:00 +3°C° 0 mm 3 mps 771 mmHg 86%
    05:00 +2°C° 0 mm 3 mps 771 mmHg 88%
    06:00 +3°C° 0 mm 2 mps 771 mmHg 89%
    07:00 +3°C° 0 mm 3 mps 771 mmHg 82%
    08:00 +5°C° 0 mm 3 mps 772 mmHg 75%
    09:00 +7°C° 0 mm 3 mps 772 mmHg 68%
    10:00 +8°C° 0 mm 3 mps 772 mmHg 61%
    11:00 +10°C° 0 mm 3 mps 772 mmHg 54%
    12:00 +11°C° 0 mm 4 mps 772 mmHg 47%
    13:00 +12°C° 0 mm 3 mps 771 mmHg 46%
    14:00 +12°C° 0 mm 3 mps 771 mmHg 45%
    15:00 +12°C° 0 mm 3 mps 771 mmHg 43%
    16:00 +11°C° 0 mm 3 mps 771 mmHg 49%
    17:00 +11°C° 0 mm 3 mps 770 mmHg 54%
    18:00 +10°C° 0 mm 3 mps 770 mmHg 59%
    19:00 +9°C° 0 mm 3 mps 771 mmHg 62%
    20:00 +8°C° 0 mm 3 mps 771 mmHg 65%
    21:00 +7°C° 0 mm 3 mps 771 mmHg 68%
    22:00 +7°C° 0 mm 3 mps 771 mmHg 71%
    23:00 +5°C° 0 mm 3 mps 771 mmHg 73%

    27 March, Wednesday

    Time Temperature Precipitation Wind Pressure Humidity
    00:00 +5°C° 0 mm 3 mps 771 mmHg 75%
    01:00 +6°C° 0 mm 2 mps 771 mmHg 77%
    02:00 +5°C° 0 mm 2 mps 771 mmHg 78%
    03:00 +5°C° 0 mm 2 mps 771 mmHg 79%
    04:00 +4°C° 0 mm 2 mps 771 mmHg 80%
    05:00 +4°C° 0 mm 2 mps 771 mmHg 80%
    06:00 +4°C° 0 mm 2 mps 771 mmHg 81%
    07:00 +5°C° 0 mm 2 mps 771 mmHg 73%
    08:00 +7°C° 0 mm 2 mps 772 mmHg 66%
    09:00 +9°C° 0 mm 2 mps 772 mmHg 59%
    10:00 +10°C° 0 mm 2 mps 772 mmHg 54%
    11:00 +13°C° 0 mm 2 mps 771 mmHg 50%
    12:00 +13°C° 0 mm 3 mps 771 mmHg 45%
    13:00 +14°C° 0 mm 3 mps 771 mmHg 46%
    14:00 +14°C° 0 mm 3 mps 771 mmHg 47%
    15:00 +16°C° 0 mm 3 mps 770 mmHg 48%
    16:00 +14°C° 0 mm 3 mps 770 mmHg 54%
    17:00 +13°C° 0 mm 3 mps 770 mmHg 59%
    18:00 +12°C° 0 mm 3 mps 770 mmHg 65%
    19:00 +11°C° 0 mm 3 mps 771 mmHg 69%
    20:00 +10°C° 0 mm 3 mps 771 mmHg 72%
    21:00 +10°C° 0 mm 3 mps 771 mmHg 76%
    22:00 +9°C° 0 mm 3 mps 771 mmHg 79%
    23:00 +9°C° 0 mm 3 mps 771 mmHg 82%

    28 March, Thursday

    Time Temperature Precipitation Wind Pressure Humidity
    00:00 +8°C° 0 mm 3 mps 771 mmHg 85%
    01:00 +8°C° 0 mm 3 mps 771 mmHg 86%
    02:00 +7°C° 0 mm 2 mps 771 mmHg 87%
    03:00 +7°C° 0 mm 2 mps 771 mmHg 88%
    04:00 +7°C° 0 mm 2 mps 771 mmHg 88%
    05:00 +6°C° 0 mm 2 mps 771 mmHg 89%
    06:00 +6°C° 0 mm 2 mps 771 mmHg 89%
    07:00 +8°C° 0 mm 2 mps 771 mmHg 83%
    08:00 +9°C° 0 mm 2 mps 771 mmHg 77%
    09:00 +12°C° 0 mm 2 mps 771 mmHg 71%
    10:00 +12°C° 0 mm 3 mps 771 mmHg 67%
    11:00 +13°C° 0 mm 3 mps 771 mmHg 63%
    12:00 +16°C° 0 mm 3 mps 771 mmHg 58%
    13:00 +16°C° 0 mm 3 mps 771 mmHg 59%
    14:00 +14°C° 0 mm 3 mps 770 mmHg 60%
    15:00 +14°C° 0 mm 3 mps 770 mmHg 61%
    16:00 +14°C° 0 mm 3 mps 770 mmHg 63%
    17:00 +13°C° 0 mm 3 mps 770 mmHg 65%
    18:00 +13°C° 0 mm 3 mps 770 mmHg 67%
    19:00 +12°C° 0 mm 3 mps 770 mmHg 72%
    20:00 +12°C° 0 mm 2 mps 770 mmHg 77%
    21:00 +10°C° 0 mm 2 mps 770 mmHg 81%
    22:00 +10°C° 0 mm 2 mps 770 mmHg 83%
    23:00 +9°C° 0 mm 2 mps 770 mmHg 85%
    Show more